YAOGAN-34 03

Satellite information

Favourite Embed

Satellite Type and Status

PAYLOADIN ORBIT

Key statistics

Satellite YAOGAN-34 03 at a glance.

Uptime

1029

Days in orbit

Revolutions

≈ 13.5

Per day

Orbit

LEO

Low Earth Orbit

Inclination

63.4

Latest

Satellite identification and parameters

Extended collection of information and parameters for YAOGAN-34 03.

Object identification

Identified? True

Debris? False

Object name: YAOGAN-34 03

International designator: 2022-154A

Object number (NORAD): 54249

Object ID (CCSDS): 54249

Country: PEOPLES REPUBLIC OF CHINA (PRC)

Current information (Y/N): Y

RCS size: LARGE

Orbital parameters

Period: 107.029 minutes

Inclination: 63.4051 deg

SMA: 7467.259 km

Apoapsis: 1127.329 km

Periapsis: 1050.92 km

RAAN: 265.3279 deg

Eccentricy: 0.00511621

Argument of periapsis: 351.8924 deg

Mean anomaly: 8.127 deg

Mean motion: 13.45429353 rev/day

Mean motion (dot): -0.00000071 rev/day2

B* drag term: 0.000032213638 1/REarth

Two-line elements (TLE)

Creation date: Sept. 8, 2025, 6:18 p.m.

Reference frame: TEME

Reference center: EARTH

Epoch: Sept. 8, 2025, 2:56 p.m. UTC

TLE line 0: 0 YAOGAN-34 03

TLE line 1: 1 54249U 22154A 25251.62222380 -.00000071 00000-0 32214-4 0 9993

TLE line 2: 2 54249 63.4051 265.3279 0051162 351.8924 8.1270 13.45429353138375

Live tracking on map

Real-time ground track for satellite YAOGAN-34 03.

In-orbit conjunctions

There are no conjunctions computed for YAOGAN-34 03, at the moment. Check back to stay up to date, as we update our databases every day.

Go to all conjunctions

Associated space launch

Officially described as an optical remote-sensing satellite built by SAST.

YAOGAN-34 03 was lifted into orbit during the mission ‘Long March 4C | Yaogan 34-03’, on board a Long March 4C space rocket.

The launch took place on Nov. 15, 2022, 1:38 a.m. from Launch Area 4 (SLS-2 / 603).

For more information about the launch, click the button.

Launch to space Long March 4C | Yaogan 34-03
Long March 4C | Yaogan 34-03

Agency: N/A

Status: Launch Successful

Launch date: Nov. 15, 2022, 1:38 a.m. UTC

Rocket: Long March 4C

Launch pad: Launch Area 4 (SLS-2 / 603)

Location: Jiuquan Satellite Launch Center, People's Republic of China

...

Latest news about this satellite

There are no fresh news available about this satellite. Check back as we update our databases every day.


Newsletter sign-up

Weekly statistics, charts and insights to help you stay on top of the space industry.